Regional Weather Roundup
Issued by NWS

Home | Current Version | Previous Version | Text Only | Print | Product List | Glossary On
Versions: 1 2 3 4 5 6 7 8 9 10 11 12 13 14 15 16 17 18 19 20 21 22 23 24 25 26 27 28 29 30 31 32 33 34 35 36 37 38 39 40 41 42 43 44 45 46 47 48 49 50
000
ASUS43 KDTX 280101
RWRMI
MICHIGAN HOURLY REGIONAL WEATHER ROUNDUP
NATIONAL WEATHER SERVICE DETROIT/PONTIAC MI
800 PM EST FRI FEB 27 2015

NOTE: "FAIR" INDICATES FEW OR NO CLOUDS BELOW 12,000 FEET WITH NO
SIGNIFICANT WEATHER AND/OR OBSTRUCTION TO VISIBILITY.

MIZ047>049-052>055-059>063-066>070-074>076-081>083-280200-
SOUTHEAST LOWER MICHIGAN

CITY           SKY/WX    TMP DP  RH WIND       PRES   REMARKS
ADRIAN         CLEAR     11  -3  53 W3        30.61R
ALMA           CLEAR     12   1  62 SW3       30.56R
ANN ARBOR      CLEAR      6  -4  63 CALM      30.58R
BAD AXE        CLEAR      8  -1  68 SW6       30.55R WCI  -3
CARO           CLEAR      8  -1  65 CALM      30.55R
DETROIT CITY   CLEAR     17  -2  43 W3        30.60R
DETROIT        PTCLDY     9  -3  58 S7        30.61R WCI  -2
FLINT          CLEAR     13  -1  54 S6        30.57R WCI   4
GROSSE ILE     CLEAR      3  -6  66 S5        30.60S WCI  -6
HILLSDALE      CLEAR     11  -1  57 SW5       30.56R WCI   3
HOWELL         CLEAR     12  -2  52 S3        30.56R

CITY           SKY/WX    TMP DP  RH WIND       PRES   REMARKS
JACKSON        CLEAR     10  -1  61 SW3       30.57R
LAMBERTVILLE   CLEAR     12  -4  48 CALM      30.63R
LANSING        CLOUDY    15   4  61 W7        30.57R WCI   5
LAPEER         FAIR      10  -2  59 SW5       30.56R WCI   1
MASON          PTCLDY     9  -2  62 CALM      30.57R
MONROE         CLEAR      7  -4  61 CALM      30.60R
MT. CLEMENS    CLEAR      6   0  73 SW2       30.57R
PONTIAC        PTCLDY    12  -2  53 SW3       30.55R
PORT HOPE        N/A     12   0  58 SW6       30.53R WCI   3
PORT HURON     CLEAR      7  -2  66 S6        30.59R WCI  -3
TRI CITIES     CLEAR     13   1  59 SW7       30.56R WCI   3
TROY           CLEAR     16  -2  45 CALM      30.60S
SAGINAW HB     CLEAR     12   3  67 SW7       30.56R WCI   2
$$
MIZ043>046-050>051-056>058-064>065-071>073-077>080-280200-
SOUTHWEST LOWER MICHIGAN

CITY           SKY/WX    TMP DP  RH WIND       PRES   REMARKS
BATTLE CREEK   CLEAR     11  -3  53 W7        30.57R WCI   0
BENTON HARBOR  CLEAR      9   0  67 S3        30.62R
BIG RAPIDS     CLEAR      9  -1  65 CALM      30.52R
COLDWATER      CLEAR      8  -2  63 SW6       30.58R WCI  -2
FREMONT        FAIR      10  -1  61 S3        30.55R
HOLLAND        CLEAR     10   0  63 S3        30.60R
GRAND RAPIDS   CLEAR     12   1  61 SW10      30.58R WCI  -1
IONIA          FAIR      11   3  68 W7        30.56R WCI   1
KALAMAZOO      CLEAR     12  -2  53 W5        30.59R WCI   4
LUDINGTON      PTCLDY    16   5  62 SW7       30.54R WCI   6
MARSHALL       CLEAR      5  -2  72 S3        30.57R
MOUNT PLEASANT CLEAR     14   1  56 SW9       30.54R WCI   2
MUSKEGON       MOCLDY    13   3  64 SW8       30.58R WCI   2
SOUTH HAVEN    CLEAR     10   0  65 CALM      30.61R
$$
MIZ016>042-280200-
NORTHERN LOWER MICHIGAN

CITY           SKY/WX    TMP DP  RH WIND       PRES   REMARKS
ALPENA         CLEAR      6  -4  63 CALM      30.49R
BEAVER ISLAND  CLEAR     11   3  71 SW8       30.47R WCI  -1
BELLAIRE       CLOUDY    11   3  68 CALM      30.51R
CADILLAC       CLEAR      6  -1  70 SW5       30.46R WCI  -2
CHARLEVOIX     CLOUDY    13   5  69 CALM      30.52R
FRANKFORT      MOCLDY    18   8  66 SW9G16    30.51R WCI   6
GAYLORD        CLEAR      5  -1  76 SW3       30.43R
GRAYLING       CLEAR      5  -3  71 CALM      30.47R
HARBOR SPRINGS CLOUDY    12   5  74 SW3       30.48R
HOUGHTON LAKE  CLEAR     10  -3  55 SW7       30.48R WCI  -1
MANISTEE       MOCLDY    12   0  57 S5        30.53R WCI   4
OSCODA         CLEAR     12   0  59 SW7       30.51R WCI   1
PELLSTON       CLOUDY    10   3  73 SW3       30.48R
ROGERS CITY    CLEAR      8   2  75 W3        30.50R
TRAVERSE CITY  PTCLDY    10   2  69 S3        30.50R
$$
MIZ007>008-015-280200-
EASTERN UPPER MICHIGAN

CITY           SKY/WX    TMP DP  RH WIND       PRES   REMARKS
KINROSS        CLEAR      7   1  78 SW3       30.45R
MACKINAC ISLAN CLEAR      8   1  73 SW8       30.46S WCI  -4
NEWBERRY       CLEAR      6   0  76 S7        30.42R WCI  -6
S. S. MARIE    FAIR       7  -3  64 SW6       30.45R WCI  -3
MUNISING         N/A      5  -2  72 S6        30.43R WCI  -6
$$
MIZ004>006-011>014-085-280200-
CENTRAL UPPER MICHIGAN

CITY           SKY/WX    TMP DP  RH WIND       PRES   REMARKS
MANISTIQUE     CLEAR     13   3  62 W3        30.44R
ESCANABA       CLEAR     14   3  62 SW10      30.45R WCI   1
MENOMINEE      CLEAR     14  -6  41 W7        30.47R WCI   4
SAWYER-GWINN   CLEAR      7   0  72 CALM      30.36R
$$
MIZ001>003-009>011-084-280200-
WESTERN UPPER MICHIGAN

CITY           SKY/WX    TMP DP  RH WIND       PRES   REMARKS
IRON MOUNTAIN  CLEAR     15  -6  39 W5        30.39R WCI   8
HOUGHTON       CLEAR     10  -7  46 W13       30.34S WCI  -5
COPPER HARBOR    N/A      8  -6  52 CALM      30.37R
IRONWOOD       CLEAR     12 -11  34 SW8       30.36R WCI   1
$$

ABBREVIATIONS USED IN REMARKS
   TC - TEMPERATURE IN CELSIUS
  WCI - WIND CHILL INDEX
   HX - HEAT INDEX
  VSB - VISIBILITY



USA.gov is the U.S. government's official web portal to all federal, state and local government web resources and services.